Location: Campillo
(40.8621°N, 4.2488°W)
Time: 04:21:43
(UTC+00:00)

OE (NEXTSAT) - Visible Passes

Search period start: 26 September 2021 00:00
Search period end: 06 October 2021 00:00
Orbit: 422 x 430 km, 46.0° (Epoch: 25 September)

Date Brightness Start Highest point End Pass type
(mag) Time Alt. Az. Time Alt. Az. Time Alt. Az.
26 Sep 6.4 04:27:59 16° S 04:29:13 19° SE 04:31:44 10° E visible
27 Sep 7.3 03:44:32 12° ESE 03:44:32 12° ESE 03:45:13 10° ESE visible
27 Sep 4.3 05:17:38 14° WSW 05:20:29 78° SSE 05:23:53 10° ENE visible
28 Sep 4.7 04:34:04 47° S 04:34:37 54° SSE 04:37:58 10° ENE visible
29 Sep 6.6 03:50:25 23° E 03:50:25 23° E 03:51:59 10° ENE visible
29 Sep 4.8 05:23:30 15° W 05:26:10 49° NNW 05:29:31 10° ENE visible
30 Sep 4.3 04:39:46 55° WNW 04:40:13 62° NNW 04:43:37 10° ENE visible
01 Oct 6.4 03:55:59 27° ENE 03:55:59 27° ENE 03:57:42 10° ENE visible
01 Oct 5.4 05:29:04 11° WNW 05:31:59 34° N 05:35:09 10° ENE visible
02 Oct 5.2 04:45:15 33° NW 04:45:58 37° N 04:49:11 10° ENE visible
03 Oct 6.3 04:01:24 26° NE 04:01:24 26° NE 04:03:13 10° ENE visible
03 Oct 5.5 05:34:39 10° WNW 05:37:48 34° N 05:40:58 10° ENE visible
04 Oct 5.5 04:50:36 26° NW 04:51:45 33° N 04:54:53 10° ENE visible
05 Oct 6.3 04:06:45 26° NE 04:06:45 26° NE 04:08:48 10° ENE visible
05 Oct 5.0 05:40:11 10° WNW 05:43:31 49° NNE 05:46:51 10° E visible
